Weather History for Avalon, CA

Change the Weather History Date:

Monday, December 31, 2012

  Actual Average Record
Temperature  
Mean Temperature 50 °F -  
Max Temperature 54 °F 57 °F 73 °F (2011)
Min Temperature 45 °F 48 °F 41 °F (2010)
Degree Days  
Heating Degree Days 16    
Moisture  
Dew Point 35 °F    
Average Humidity 61    
Maximum Humidity 73    
Minimum Humidity 43    
Precipitation  
Precipitation 0.00 in - - ()
Sea Level Pressure  
Sea Level Pressure 30.19 in    
Wind  
Wind Speed 7 mph (NNW)    
Max Wind Speed 14 mph    
Max Gust Speed 22 mph    
Visibility 10 miles    
Events      
Averages and records for this station are not official NWS values.
T = Trace of Precipitation, MM = Missing Value Source: NWS Daily Summary

Daily Weather History Graph

Daily Weather History Graph

Search for Another Location

Airport:

Trip Planner

Search our weather history database for the weather conditions in past years. The results will help you decide how hot, cold, wet, or windy it might be!

Date:

Astronomy

Dec. 31, 2012 Rise Set
Actual Time 6:57 AM PST 4:56 PM PST
Civil Twilight 6:30 AM PST 5:24 PM PST
Nautical Twilight 5:59 AM PST 5:54 PM PST
Astronomical Twilight 5:28 AM PST 6:25 PM PST
Moon 8:20 PM PST (12/31) 8:51 AM PST (12/31)
Length of Visible Light 10h 53m
Length of Day
9h 59m
Waning Gibbous, 89% of the Moon is Illuminated
Dec 31
Waning Gibbous
Jan 4
Last Quarter
Jan 11
New
Jan 18
First Quarter
Jan 26
Full

Hourly Weather History & Observations

Time (PST) Temp. Windchill Dew Point Humidity Pressure Visibility Wind Dir Wind Speed Gust Speed Precip Events Conditions
12:51 AM 46.0 °F 39.9 °F 34.0 °F 63% 30.09 in 10.0 mi North 13.8 mph 21.9 mph N/A   Clear
1:51 AM 45.0 °F 40.1 °F 34.0 °F 65% 30.11 in 10.0 mi North 9.2 mph - N/A   Clear
3:51 AM 46.0 °F 43.9 °F 34.0 °F 63% 30.12 in 10.0 mi WNW 4.6 mph - N/A   Clear
4:51 AM 46.0 °F 42.5 °F 36.0 °F 68% 30.13 in 10.0 mi NW 6.9 mph - N/A   Clear
5:51 AM 45.0 °F 43.5 °F 35.1 °F 68% 30.14 in 10.0 mi NNE 3.5 mph - N/A   Clear
6:51 AM 45.0 °F 41.2 °F 35.1 °F 68% 30.15 in 10.0 mi NNE 6.9 mph - N/A   Clear
7:51 AM 46.9 °F - 36.0 °F 66% 30.17 in 10.0 mi ENE 6.9 mph - N/A   Clear
8:51 AM 46.9 °F - 36.0 °F 66% 30.20 in 10.0 mi NNE 5.8 mph - N/A   Clear
9:51 AM 50.0 °F - 30.9 °F 48% 30.22 in 10.0 mi NE 3.5 mph - N/A   Clear
10:51 AM 53.1 °F - 30.9 °F 43% 30.21 in 10.0 mi East 3.5 mph - N/A   Clear
11:51 AM 51.1 °F - 37.0 °F 59% 30.20 in 10.0 mi Variable 3.5 mph - N/A   Clear
12:51 PM 54.0 °F - 37.9 °F 55% 30.18 in 10.0 mi Calm Calm - N/A   Partly Cloudy
1:51 PM 51.1 °F - 35.1 °F 54% 30.18 in 10.0 mi Variable 4.6 mph - N/A   Clear
2:51 PM 51.1 °F - 34.0 °F 52% 30.18 in 10.0 mi West 9.2 mph - N/A   Clear
3:51 PM 50.0 °F - 33.1 °F 52% 30.20 in 10.0 mi West 9.2 mph - N/A   Clear
4:51 PM 48.0 °F - 33.1 °F 56% 30.21 in 10.0 mi WSW 5.8 mph - N/A   Clear
5:51 PM 48.0 °F - 34.0 °F 58% 30.22 in 10.0 mi WSW 4.6 mph - N/A   Clear
6:51 PM 46.9 °F - 34.0 °F 61% 30.22 in 10.0 mi WSW 3.5 mph - N/A   Clear
7:51 PM 46.9 °F - 36.0 °F 66% 30.24 in 10.0 mi Calm Calm - N/A   Clear
8:51 PM 46.9 °F - 36.0 °F 66% 30.24 in 10.0 mi Calm Calm - N/A   Clear
9:51 PM 46.0 °F 44.8 °F 33.1 °F 61% 30.24 in 10.0 mi NE 3.5 mph - N/A   Clear
10:51 PM 46.0 °F 43.1 °F 37.0 °F 71% 30.25 in 10.0 mi NNW 5.8 mph - N/A   Clear
11:51 PM 46.0 °F 43.9 °F 37.9 °F 73% 30.24 in 10.0 mi NNW 4.6 mph - N/A   Clear